SYL737 UWKD-ULLI

Flight info

Callsign SYL737
Flight time 1h 52m
Altitude 38000
Route APTAR L158 IRGOS T613 DOGOB M864 IBROT T784 ROKUR
Aircraft B737/M-SDE3GHIJ2J3J5M1RVWXYZ/LB2D1

Departure

Time 2026-05-05 06:58
Airport Kazan International Airport (UWKD)

Arrival

Time 2026-05-05 08:51
Airport Pulkovo Airport (ULLI)
Time Latitude Longitude Altitude Speed Heading
2026-05-05 05:56 55.60696 49.30021 415 ft 0 kts 34°
2026-05-05 06:49 55.60690 49.30014 415 ft 2 kts 34°
2026-05-05 06:49 55.60677 49.29997 409 ft 2 kts 34°
2026-05-05 06:49 55.60663 49.29981 415 ft 2 kts 35°
2026-05-05 06:49 55.60650 49.29962 408 ft 2 kts 54°
2026-05-05 06:50 55.60643 49.29936 406 ft 2 kts 77°
2026-05-05 06:50 55.60646 49.29909 406 ft 2 kts 123°
2026-05-05 06:50 55.60648 49.29904 407 ft 0 kts 123°
2026-05-05 06:53 55.60647 49.29907 415 ft 1 kts 123°
2026-05-05 06:54 55.60624 49.29969 411 ft 10 kts 123°
2026-05-05 06:54 55.60576 49.30081 413 ft 13 kts 141°
2026-05-05 06:54 55.60498 49.30055 415 ft 13 kts 215°
2026-05-05 06:54 55.60421 49.29959 415 ft 14 kts 215°
2026-05-05 06:55 55.60329 49.29886 410 ft 15 kts 188°
2026-05-05 06:55 55.60225 49.29916 410 ft 15 kts 156°
2026-05-05 06:55 55.60132 49.29995 411 ft 14 kts 154°
2026-05-05 06:55 55.60043 49.30070 411 ft 14 kts 154°
2026-05-05 06:56 55.59955 49.30125 410 ft 13 kts 177°
2026-05-05 06:56 55.59925 49.30118 409 ft 0 kts 196°
2026-05-05 06:57 55.59923 49.30117 410 ft 2 kts 196°
2026-05-05 06:57 55.59892 49.30092 417 ft 8 kts 206°
2026-05-05 06:57 55.59831 49.30011 406 ft 13 kts 236°
2026-05-05 06:57 55.59846 49.29875 412 ft 13 kts 303°
2026-05-05 06:58 55.59940 49.29631 413 ft 52 kts 304°
2026-05-05 06:58 55.60286 49.28739 414 ft 120 kts 304°
2026-05-05 06:58 55.60863 49.27275 436 ft 169 kts 303°
2026-05-05 06:58 55.61522 49.25558 1097 ft 167 kts 303°
2026-05-05 06:59 55.62156 49.23819 1776 ft 170 kts 284°
2026-05-05 06:59 55.62097 49.21594 1863 ft 204 kts 244°
2026-05-05 06:59 55.61428 49.19378 2276 ft 215 kts 243°
2026-05-05 06:59 55.60742 49.16949 2771 ft 224 kts 244°
2026-05-05 07:00 55.60040 49.14336 3034 ft 246 kts 245°
2026-05-05 07:00 55.59311 49.11556 3780 ft 250 kts 246°
2026-05-05 07:00 55.58592 49.08763 4673 ft 250 kts 246°
2026-05-05 07:00 55.57916 49.06063 5494 ft 253 kts 247°
2026-05-05 07:01 55.57205 49.03182 6334 ft 257 kts 247°
2026-05-05 07:01 55.56492 49.00272 7203 ft 260 kts 248°
2026-05-05 07:01 55.55772 48.97303 7661 ft 263 kts 248°
2026-05-05 07:01 55.55049 48.94313 7896 ft 267 kts 248°
2026-05-05 07:02 55.54320 48.91288 7900 ft 268 kts 248°
2026-05-05 07:02 55.53591 48.88268 7890 ft 266 kts 248°
2026-05-05 07:02 55.52869 48.85276 7891 ft 265 kts 248°
2026-05-05 07:02 55.52150 48.82293 7907 ft 263 kts 248°
2026-05-05 07:03 55.51433 48.79320 7897 ft 263 kts 248°
2026-05-05 07:03 55.50716 48.76354 7902 ft 263 kts 248°
2026-05-05 07:03 55.50062 48.73387 7914 ft 264 kts 258°
2026-05-05 07:03 55.50197 48.70132 8371 ft 272 kts 283°
2026-05-05 07:04 55.50633 48.66872 9337 ft 274 kts 282°
2026-05-05 07:04 55.51055 48.63590 10249 ft 277 kts 282°
2026-05-05 07:04 55.51491 48.60146 10600 ft 302 kts 282°
2026-05-05 07:04 55.51962 48.56397 11027 ft 319 kts 282°
2026-05-05 07:05 55.52443 48.52539 11863 ft 324 kts 283°
2026-05-05 07:05 55.52926 48.48639 12739 ft 328 kts 283°
2026-05-05 07:05 55.53418 48.44650 13490 ft 336 kts 283°
2026-05-05 07:05 55.53916 48.40599 14355 ft 338 kts 282°
2026-05-05 07:06 55.54413 48.36524 15241 ft 340 kts 282°
2026-05-05 07:06 55.54914 48.32417 16090 ft 344 kts 282°
2026-05-05 07:06 55.55418 48.28265 16919 ft 348 kts 282°
2026-05-05 07:06 55.55926 48.24069 17773 ft 351 kts 282°
2026-05-05 07:07 55.56438 48.19822 18552 ft 355 kts 282°
2026-05-05 07:07 55.56953 48.15538 19278 ft 358 kts 282°
2026-05-05 07:07 55.57472 48.11212 20033 ft 361 kts 282°
2026-05-05 07:07 55.57992 48.06854 20762 ft 364 kts 282°
2026-05-05 07:08 55.58516 48.02456 21478 ft 367 kts 282°
2026-05-05 07:08 55.59044 47.98012 22198 ft 371 kts 282°
2026-05-05 07:08 55.59574 47.93535 22884 ft 374 kts 282°
2026-05-05 07:08 55.60108 47.89005 23548 ft 378 kts 282°
2026-05-05 07:09 55.60638 47.84493 24103 ft 381 kts 282°
2026-05-05 07:09 55.61177 47.79888 24668 ft 384 kts 282°
2026-05-05 07:09 55.61719 47.75240 25233 ft 387 kts 281°
2026-05-05 07:09 55.62262 47.70570 25847 ft 388 kts 281°
2026-05-05 07:10 55.62806 47.65872 26392 ft 391 kts 281°
2026-05-05 07:10 55.63354 47.61130 26890 ft 395 kts 281°
2026-05-05 07:10 55.63905 47.56342 27385 ft 399 kts 281°
2026-05-05 07:10 55.64458 47.51515 27886 ft 402 kts 281°
2026-05-05 07:11 55.65013 47.46652 28369 ft 405 kts 281°
2026-05-05 07:11 55.65572 47.41744 28845 ft 408 kts 281°
2026-05-05 07:11 55.66133 47.36794 29303 ft 411 kts 281°
2026-05-05 07:11 55.66695 47.31815 29747 ft 414 kts 281°
2026-05-05 07:12 55.67260 47.26796 30139 ft 417 kts 281°
2026-05-05 07:12 55.67828 47.21732 30487 ft 420 kts 281°
2026-05-05 07:12 55.68204 47.18363 30719 ft 422 kts 281°
2026-05-05 07:12 55.68829 47.13270 31067 ft 424 kts 284°
2026-05-05 07:13 55.69603 47.08238 31560 ft 422 kts 285°
2026-05-05 07:13 55.70422 47.03261 32147 ft 418 kts 286°
2026-05-05 07:13 55.71245 46.98323 32593 ft 418 kts 286°
2026-05-05 07:13 55.72063 46.93374 32953 ft 419 kts 285°
2026-05-05 07:14 55.72870 46.88414 33336 ft 419 kts 285°
2026-05-05 07:14 55.73668 46.83450 33776 ft 417 kts 285°
2026-05-05 07:14 55.74457 46.78503 34161 ft 416 kts 285°
2026-05-05 07:14 55.75241 46.73550 34440 ft 417 kts 285°
2026-05-05 07:15 55.76025 46.68584 34688 ft 419 kts 285°
2026-05-05 07:15 55.76801 46.63658 34925 ft 420 kts 285°
2026-05-05 07:15 55.77585 46.58665 35251 ft 419 kts 285°
2026-05-05 07:15 55.78367 46.53682 35580 ft 419 kts 285°
2026-05-05 07:16 55.79145 46.48697 35886 ft 418 kts 284°
2026-05-05 07:16 55.79940 46.43732 36204 ft 418 kts 286°
2026-05-05 07:16 55.80797 46.38794 36472 ft 418 kts 287°
2026-05-05 07:16 55.81683 46.33865 36706 ft 419 kts 287°
2026-05-05 07:17 55.82578 46.28931 36978 ft 419 kts 287°
2026-05-05 07:17 55.83469 46.23997 37237 ft 419 kts 287°
2026-05-05 07:17 55.84353 46.19058 37474 ft 419 kts 287°
2026-05-05 07:17 55.85232 46.14106 37717 ft 420 kts 287°
2026-05-05 07:18 55.86108 46.09145 37891 ft 422 kts 286°
2026-05-05 07:18 55.87872 45.99057 37874 ft 431 kts 286°
2026-05-05 07:19 55.89662 45.88829 37877 ft 438 kts 288°
2026-05-05 07:19 55.92352 45.79119 37855 ft 437 kts 297°
2026-05-05 07:20 55.95344 45.69614 37865 ft 442 kts 298°
2026-05-05 07:20 55.98341 45.59997 37856 ft 444 kts 297°
2026-05-05 07:21 56.01313 45.50301 37854 ft 445 kts 297°
2026-05-05 07:21 56.04261 45.40588 37864 ft 444 kts 297°
2026-05-05 07:22 56.07198 45.30859 37842 ft 444 kts 297°
2026-05-05 07:22 56.10118 45.21144 37837 ft 442 kts 297°
2026-05-05 07:23 56.13024 45.11440 37843 ft 441 kts 296°
2026-05-05 07:23 56.15900 45.01794 37839 ft 441 kts 296°
2026-05-05 07:24 56.18784 44.92086 37847 ft 439 kts 296°
2026-05-05 07:24 56.21647 44.82406 37824 ft 438 kts 296°
2026-05-05 07:25 56.24492 44.72748 37828 ft 437 kts 296°
2026-05-05 07:25 56.27323 44.63100 37822 ft 436 kts 296°
2026-05-05 07:26 56.30146 44.53435 37826 ft 436 kts 296°
2026-05-05 07:26 56.32960 44.43765 37831 ft 436 kts 296°
2026-05-05 07:27 56.35770 44.34064 37818 ft 436 kts 295°
2026-05-05 07:27 56.38572 44.24354 37818 ft 436 kts 295°
2026-05-05 07:28 56.41367 44.14625 37820 ft 436 kts 295°
2026-05-05 07:28 56.44136 44.04948 37815 ft 436 kts 295°
2026-05-05 07:29 56.46917 43.95186 37814 ft 437 kts 295°
2026-05-05 07:29 56.49692 43.85407 37811 ft 437 kts 295°
2026-05-05 07:30 56.52459 43.75613 37805 ft 437 kts 295°
2026-05-05 07:30 56.56594 43.60898 37806 ft 437 kts 295°
2026-05-05 07:31 56.59341 43.51071 37806 ft 437 kts 295°
2026-05-05 07:31 56.62083 43.41220 37810 ft 437 kts 294°
2026-05-05 07:32 56.64817 43.31353 37798 ft 437 kts 294°
2026-05-05 07:32 56.67524 43.21547 37794 ft 437 kts 294°
2026-05-05 07:33 56.70238 43.11671 37792 ft 436 kts 294°
2026-05-05 07:33 56.72943 43.01782 37787 ft 436 kts 294°
2026-05-05 07:34 56.75639 42.91883 37794 ft 436 kts 294°
2026-05-05 07:34 56.78329 42.81966 37786 ft 436 kts 294°
2026-05-05 07:35 56.81008 42.72045 37781 ft 436 kts 294°
2026-05-05 07:35 56.83678 42.62114 37772 ft 435 kts 293°
2026-05-05 07:36 56.86323 42.52234 37773 ft 435 kts 293°
2026-05-05 07:36 56.88975 42.42284 37792 ft 435 kts 293°
2026-05-05 07:37 56.91619 42.32318 37777 ft 435 kts 293°
2026-05-05 07:37 56.94256 42.22335 37768 ft 435 kts 293°
2026-05-05 07:38 56.96884 42.12347 37771 ft 435 kts 293°
2026-05-05 07:38 56.99503 42.02342 37767 ft 435 kts 293°
2026-05-05 07:39 57.02115 41.92323 37769 ft 435 kts 292°
2026-05-05 07:39 57.04716 41.82297 37771 ft 435 kts 292°
2026-05-05 07:40 57.07308 41.72265 37768 ft 434 kts 292°
2026-05-05 07:40 57.09890 41.62228 37770 ft 434 kts 292°
2026-05-05 07:41 57.12444 41.52251 37768 ft 434 kts 292°
2026-05-05 07:41 57.15007 41.42196 37771 ft 433 kts 292°
2026-05-05 07:42 57.17560 41.32132 37783 ft 434 kts 291°
2026-05-05 07:42 57.20107 41.22051 37773 ft 434 kts 291°
2026-05-05 07:43 57.22646 41.11952 37770 ft 434 kts 291°
2026-05-05 07:43 57.25179 41.01833 37770 ft 434 kts 291°
2026-05-05 07:44 57.27701 40.91711 37771 ft 434 kts 291°
2026-05-05 07:44 57.30217 40.81566 37798 ft 434 kts 291°
2026-05-05 07:45 57.32711 40.71461 37782 ft 435 kts 291°
2026-05-05 07:45 57.35213 40.61280 37776 ft 434 kts 291°
2026-05-05 07:46 57.37703 40.51097 37775 ft 434 kts 291°
2026-05-05 07:46 57.40186 40.40897 37770 ft 434 kts 291°
2026-05-05 07:47 57.42661 40.30686 37800 ft 434 kts 291°
2026-05-05 07:47 57.45127 40.20456 37784 ft 434 kts 290°
2026-05-05 07:48 57.47585 40.10216 37778 ft 434 kts 290°
2026-05-05 07:48 57.50020 40.00027 37775 ft 434 kts 290°
2026-05-05 07:49 57.52461 39.89761 37775 ft 434 kts 290°
2026-05-05 07:49 57.54892 39.79489 37779 ft 434 kts 290°
2026-05-05 07:50 57.57315 39.69201 37774 ft 433 kts 290°
2026-05-05 07:50 57.59724 39.58925 37775 ft 432 kts 290°
2026-05-05 07:51 57.62119 39.48659 37776 ft 431 kts 290°
2026-05-05 07:51 57.64500 39.38399 37782 ft 430 kts 290°
2026-05-05 07:52 57.66872 39.28136 37769 ft 430 kts 290°
2026-05-05 07:52 57.69217 39.17934 37795 ft 430 kts 290°
2026-05-05 07:53 57.71444 39.08203 37780 ft 429 kts 290°
2026-05-05 07:53 57.73705 38.98278 37774 ft 428 kts 290°
2026-05-05 07:54 57.76026 38.88042 37775 ft 427 kts 289°
2026-05-05 07:54 57.78338 38.77795 37776 ft 427 kts 289°
2026-05-05 07:55 57.80607 38.67689 37777 ft 427 kts 289°
2026-05-05 07:55 57.82890 38.57473 37777 ft 427 kts 289°
2026-05-05 07:56 57.85174 38.47204 37778 ft 427 kts 289°
2026-05-05 07:56 57.87439 38.36967 37776 ft 427 kts 289°
2026-05-05 07:57 57.89708 38.26664 37775 ft 427 kts 289°
2026-05-05 07:57 57.91971 38.16334 37772 ft 427 kts 289°
2026-05-05 07:58 57.94222 38.06008 37780 ft 427 kts 289°
2026-05-05 07:58 57.96469 37.95653 37760 ft 427 kts 289°
2026-05-05 07:59 57.98705 37.85293 37777 ft 427 kts 288°
2026-05-05 07:59 58.00931 37.74929 37780 ft 427 kts 288°
2026-05-05 08:00 58.03150 37.64549 37779 ft 427 kts 288°
2026-05-05 08:00 58.05359 37.54156 37808 ft 427 kts 288°
2026-05-05 08:01 58.07565 37.43723 37790 ft 428 kts 288°
2026-05-05 08:01 58.09767 37.33262 37786 ft 429 kts 288°
2026-05-05 08:02 58.11964 37.22769 37779 ft 429 kts 288°
2026-05-05 08:02 58.14139 37.12329 37779 ft 429 kts 288°
2026-05-05 08:03 58.16320 37.01803 37782 ft 429 kts 288°
2026-05-05 08:03 58.18496 36.91250 37788 ft 431 kts 288°
2026-05-05 08:04 58.20667 36.80661 37795 ft 431 kts 288°
2026-05-05 08:04 58.22834 36.70039 37791 ft 432 kts 288°
2026-05-05 08:05 58.24994 36.59394 37786 ft 432 kts 288°
2026-05-05 08:05 58.27145 36.48737 37792 ft 432 kts 288°
2026-05-05 08:06 58.29238 36.38337 37803 ft 410 kts 288°
2026-05-05 08:06 58.31250 36.28270 37795 ft 405 kts 288°
2026-05-05 08:07 58.33091 36.18994 37797 ft 404 kts 287°
2026-05-05 08:07 58.34985 36.09414 37796 ft 403 kts 287°
2026-05-05 08:08 58.36611 36.01153 37790 ft 403 kts 287°
2026-05-05 08:08 58.38563 35.91191 37793 ft 402 kts 287°
2026-05-05 08:09 58.40515 35.81183 37829 ft 403 kts 287°
2026-05-05 08:09 58.42437 35.71274 37807 ft 404 kts 287°
2026-05-05 08:10 58.44379 35.61216 37801 ft 404 kts 287°
2026-05-05 08:10 58.46317 35.51125 37798 ft 405 kts 287°
2026-05-05 08:11 58.48235 35.41086 37802 ft 406 kts 287°
2026-05-05 08:11 58.50160 35.30958 37778 ft 406 kts 287°
2026-05-05 08:12 58.52083 35.20791 37814 ft 407 kts 287°
2026-05-05 08:12 58.54001 35.10594 37804 ft 408 kts 287°
2026-05-05 08:13 58.55914 35.00364 37798 ft 408 kts 286°
2026-05-05 08:13 58.57823 34.90110 37798 ft 408 kts 286°
2026-05-05 08:14 58.59723 34.79844 37797 ft 408 kts 286°
2026-05-05 08:14 58.61615 34.69568 37794 ft 408 kts 286°
2026-05-05 08:15 58.63484 34.59358 37803 ft 409 kts 286°
2026-05-05 08:15 58.65360 34.49055 37806 ft 408 kts 286°
2026-05-05 08:16 58.67225 34.38756 37791 ft 408 kts 286°
2026-05-05 08:16 58.69081 34.28453 37794 ft 408 kts 286°
2026-05-05 08:17 58.70930 34.18134 37624 ft 411 kts 286°
2026-05-05 08:17 58.71859 34.12919 37123 ft 411 kts 286°
2026-05-05 08:17 58.72785 34.07716 36539 ft 410 kts 286°
2026-05-05 08:18 58.73703 34.02543 36055 ft 406 kts 285°
2026-05-05 08:18 58.74608 33.97438 35624 ft 401 kts 285°
2026-05-05 08:18 58.75500 33.92389 35166 ft 397 kts 285°
2026-05-05 08:18 58.76381 33.87382 34728 ft 392 kts 285°
2026-05-05 08:19 58.77250 33.82430 34303 ft 388 kts 285°
2026-05-05 08:19 58.78109 33.77522 33876 ft 385 kts 285°
2026-05-05 08:19 58.78959 33.72653 33397 ft 381 kts 285°
2026-05-05 08:19 58.79798 33.67832 32961 ft 377 kts 285°
2026-05-05 08:20 58.80613 33.63138 32545 ft 372 kts 285°
2026-05-05 08:20 58.81429 33.58429 32147 ft 368 kts 285°
2026-05-05 08:20 58.82234 33.53766 31727 ft 364 kts 285°
2026-05-05 08:20 58.83029 33.49151 31333 ft 360 kts 285°
2026-05-05 08:21 58.83815 33.44579 30939 ft 357 kts 285°
2026-05-05 08:21 58.84592 33.40046 30550 ft 354 kts 285°
2026-05-05 08:21 58.85362 33.35537 30160 ft 352 kts 285°
2026-05-05 08:21 58.86124 33.31070 29758 ft 349 kts 285°
2026-05-05 08:22 58.86877 33.26645 29329 ft 345 kts 284°
2026-05-05 08:22 58.87619 33.22278 28926 ft 340 kts 284°
2026-05-05 08:22 58.88350 33.17964 28531 ft 335 kts 284°
2026-05-05 08:22 58.89070 33.13705 28133 ft 331 kts 284°
2026-05-05 08:23 58.89780 33.09493 27727 ft 327 kts 284°
2026-05-05 08:23 58.90479 33.05332 27334 ft 324 kts 284°
2026-05-05 08:23 58.91173 33.01197 26952 ft 321 kts 284°
2026-05-05 08:23 58.91856 32.97112 26545 ft 318 kts 284°
2026-05-05 08:24 58.92532 32.93063 26182 ft 315 kts 284°
2026-05-05 08:24 58.93194 32.89093 25790 ft 313 kts 284°
2026-05-05 08:24 58.93856 32.85108 25413 ft 310 kts 284°
2026-05-05 08:24 58.94513 32.81148 25036 ft 307 kts 283°
2026-05-05 08:25 58.95162 32.77223 24662 ft 305 kts 283°
2026-05-05 08:25 58.95807 32.73320 24295 ft 303 kts 283°
2026-05-05 08:25 58.96445 32.69449 23926 ft 301 kts 283°
2026-05-05 08:25 58.97077 32.65604 23561 ft 299 kts 283°
2026-05-05 08:26 58.97705 32.61776 23159 ft 297 kts 283°
2026-05-05 08:26 58.98328 32.57969 22756 ft 295 kts 283°
2026-05-05 08:26 58.98943 32.54206 22375 ft 292 kts 283°
2026-05-05 08:26 58.99556 32.50440 22013 ft 294 kts 283°
2026-05-05 08:27 59.00174 32.46633 21646 ft 298 kts 284°
2026-05-05 08:27 59.00803 32.42747 21253 ft 305 kts 284°
2026-05-05 08:27 59.01441 32.38802 20865 ft 306 kts 284°
2026-05-05 08:27 59.02075 32.34888 20478 ft 302 kts 284°
2026-05-05 08:28 59.02701 32.31010 20089 ft 299 kts 284°
2026-05-05 08:28 59.03319 32.27177 19716 ft 296 kts 284°
2026-05-05 08:28 59.03929 32.23376 19343 ft 294 kts 284°
2026-05-05 08:28 59.04533 32.19608 18974 ft 291 kts 283°
2026-05-05 08:29 59.05122 32.15926 18595 ft 288 kts 283°
2026-05-05 08:29 59.05712 32.12224 18236 ft 285 kts 283°
2026-05-05 08:29 59.06296 32.08558 17830 ft 283 kts 283°
2026-05-05 08:30 59.07441 32.01341 17101 ft 275 kts 283°
2026-05-05 08:30 59.08001 31.97806 16744 ft 272 kts 283°
2026-05-05 08:30 59.08554 31.94304 16375 ft 269 kts 283°
2026-05-05 08:30 59.09100 31.90840 16008 ft 267 kts 283°
2026-05-05 08:31 59.09639 31.87408 15648 ft 264 kts 283°
2026-05-05 08:31 59.10178 31.84005 15277 ft 263 kts 285°
2026-05-05 08:31 59.11001 31.80810 14946 ft 266 kts 298°
2026-05-05 08:31 59.12182 31.78041 14655 ft 267 kts 307°
2026-05-05 08:32 59.13510 31.75503 14303 ft 267 kts 309°
2026-05-05 08:32 59.14855 31.73022 13956 ft 266 kts 309°
2026-05-05 08:32 59.16194 31.70546 13607 ft 265 kts 309°
2026-05-05 08:32 59.17502 31.68107 13229 ft 263 kts 309°
2026-05-05 08:33 59.18816 31.65638 12869 ft 262 kts 308°
2026-05-05 08:33 59.20120 31.63174 12505 ft 260 kts 308°
2026-05-05 08:33 59.21410 31.60729 12141 ft 258 kts 308°
2026-05-05 08:33 59.22689 31.58299 11818 ft 255 kts 308°
2026-05-05 08:34 59.23954 31.55888 11456 ft 253 kts 308°
2026-05-05 08:34 59.25211 31.53488 11117 ft 252 kts 309°
2026-05-05 08:34 59.26458 31.51104 10772 ft 250 kts 309°
2026-05-05 08:34 59.27694 31.48738 10458 ft 247 kts 309°
2026-05-05 08:35 59.28919 31.46390 10126 ft 246 kts 309°
2026-05-05 08:35 59.30134 31.44059 9923 ft 240 kts 309°
2026-05-05 08:35 59.31309 31.41807 9805 ft 234 kts 309°
2026-05-05 08:35 59.32488 31.39535 9468 ft 242 kts 309°
2026-05-05 08:36 59.33697 31.37199 9141 ft 245 kts 309°
2026-05-05 08:36 59.34906 31.34868 8803 ft 243 kts 309°
2026-05-05 08:36 59.36103 31.32561 8484 ft 240 kts 309°
2026-05-05 08:36 59.37288 31.30274 8154 ft 238 kts 309°
2026-05-05 08:37 59.38463 31.28002 7836 ft 237 kts 309°
2026-05-05 08:37 59.39637 31.25729 7528 ft 237 kts 309°
2026-05-05 08:37 59.40790 31.23494 7224 ft 236 kts 309°
2026-05-05 08:37 59.41957 31.21227 6916 ft 236 kts 309°
2026-05-05 08:38 59.43123 31.18964 6595 ft 236 kts 310°
2026-05-05 08:38 59.44290 31.16697 6263 ft 236 kts 310°
2026-05-05 08:38 59.45454 31.14431 5949 ft 235 kts 310°
2026-05-05 08:38 59.46614 31.12175 5616 ft 234 kts 309°
2026-05-05 08:39 59.47771 31.09921 5288 ft 234 kts 309°
2026-05-05 08:39 59.48920 31.07680 5004 ft 230 kts 309°
2026-05-05 08:39 59.50015 31.05548 5006 ft 215 kts 309°
2026-05-05 08:39 59.51049 31.03535 4997 ft 205 kts 309°
2026-05-05 08:40 59.52039 31.01526 4929 ft 206 kts 305°
2026-05-05 08:40 59.52998 30.99351 4844 ft 214 kts 304°
2026-05-05 08:40 59.53982 30.97080 4729 ft 221 kts 304°
2026-05-05 08:40 59.54986 30.94766 4614 ft 222 kts 304°
2026-05-05 08:41 59.55988 30.92466 4460 ft 219 kts 304°
2026-05-05 08:41 59.56971 30.90209 4350 ft 216 kts 304°
2026-05-05 08:41 59.57952 30.87954 4237 ft 217 kts 304°
2026-05-05 08:41 59.58939 30.85684 4123 ft 219 kts 305°
2026-05-05 08:42 59.59917 30.83431 4007 ft 220 kts 305°
2026-05-05 08:42 59.60914 30.81138 3892 ft 221 kts 305°
2026-05-05 08:42 59.61915 30.78834 3782 ft 221 kts 305°
2026-05-05 08:42 59.62919 30.76524 3677 ft 222 kts 305°
2026-05-05 08:43 59.63927 30.74200 3556 ft 223 kts 305°
2026-05-05 08:43 59.64923 30.71903 3438 ft 215 kts 305°
2026-05-05 08:43 59.65871 30.69723 3317 ft 203 kts 304°
2026-05-05 08:43 59.66780 30.67684 3168 ft 194 kts 311°
2026-05-05 08:44 59.67859 30.66161 3083 ft 185 kts 319°
2026-05-05 08:44 59.68908 30.64745 2984 ft 179 kts 317°
2026-05-05 08:44 59.69920 30.63351 2910 ft 175 kts 317°
2026-05-05 08:44 59.70913 30.61974 2816 ft 172 kts 317°
2026-05-05 08:45 59.71886 30.60621 2733 ft 168 kts 317°
2026-05-05 08:45 59.72815 30.59334 2616 ft 156 kts 316°
2026-05-05 08:45 59.73682 30.58132 2542 ft 150 kts 316°
2026-05-05 08:45 59.74499 30.56900 2464 ft 138 kts 303°
2026-05-05 08:46 59.74830 30.55306 2416 ft 123 kts 281°
2026-05-05 08:46 59.75199 30.53742 2337 ft 126 kts 287°
2026-05-05 08:46 59.75506 30.52136 2237 ft 126 kts 282°
2026-05-05 08:46 59.75774 30.50492 2126 ft 124 kts 279°
2026-05-05 08:47 59.76025 30.48845 2036 ft 127 kts 279°
2026-05-05 08:47 59.76279 30.47127 2015 ft 131 kts 279°
2026-05-05 08:47 59.76535 30.45389 1903 ft 133 kts 279°
2026-05-05 08:47 59.76785 30.43686 1746 ft 127 kts 279°
2026-05-05 08:48 59.77028 30.42012 1582 ft 126 kts 281°
2026-05-05 08:48 59.77277 30.40313 1407 ft 128 kts 281°
2026-05-05 08:48 59.77515 30.38692 1228 ft 119 kts 278°
2026-05-05 08:48 59.77748 30.37086 1076 ft 123 kts 279°
2026-05-05 08:49 59.77989 30.35443 916 ft 124 kts 279°
2026-05-05 08:49 59.78229 30.33810 741 ft 124 kts 282°
2026-05-05 08:49 59.78471 30.32169 583 ft 126 kts 283°
2026-05-05 08:49 59.78721 30.30466 399 ft 127 kts 282°
2026-05-05 08:50 59.78960 30.28824 265 ft 126 kts 281°
2026-05-05 08:50 59.79197 30.27108 106 ft 129 kts 283°
2026-05-05 08:50 59.79421 30.25583 83 ft 95 kts 286°
2026-05-05 08:50 59.79569 30.24614 84 ft 51 kts 288°
2026-05-05 08:51 59.79651 30.24100 84 ft 35 kts 287°
2026-05-05 08:51 59.79720 30.23651 82 ft 33 kts 287°
2026-05-05 08:51 59.79816 30.23242 83 ft 32 kts 307°
2026-05-05 08:51 59.79924 30.23031 75 ft 18 kts 341°
2026-05-05 08:52 59.79969 30.23194 76 ft 17 kts 105°
2026-05-05 08:52 59.79934 30.23414 79 ft 16 kts 108°
2026-05-05 08:52 59.79901 30.23625 80 ft 16 kts 105°
2026-05-05 08:52 59.79873 30.23831 80 ft 15 kts 105°
2026-05-05 08:53 59.79841 30.24049 83 ft 19 kts 107°
2026-05-05 08:53 59.79796 30.24337 84 ft 25 kts 107°
2026-05-05 08:53 59.79743 30.24700 82 ft 30 kts 103°
2026-05-05 08:53 59.79680 30.25121 84 ft 34 kts 107°
2026-05-05 08:54 59.79613 30.25563 85 ft 32 kts 106°
2026-05-05 08:54 59.79571 30.25856 86 ft 18 kts 106°
2026-05-05 08:54 59.79535 30.26100 86 ft 16 kts 106°
2026-05-05 08:54 59.79516 30.26249 85 ft 9 kts 90°
2026-05-05 08:55 59.79574 30.26336 82 ft 14 kts 18°
2026-05-05 08:55 59.79647 30.26387 81 ft 9 kts 36°
2026-05-05 08:55 59.79656 30.26502 83 ft 10 kts 105°
2026-05-05 08:55 59.79640 30.26611 83 ft 0 kts 107°